Weather History for Istanbul, Turkey

Change the Weather History Date:

Tuesday, January 4, 2011

  Actual Average Record
Temperature  
Mean Temperature 41 °F -  
Max Temperature 43 °F 46 °F 57 °F (1997)
Min Temperature 39 °F 37 °F 26 °F (2008)
Degree Days  
Heating Degree Days 24    
Moisture  
Dew Point 36 °F    
Average Humidity 82    
Maximum Humidity 93    
Minimum Humidity 67    
Precipitation  
Precipitation 0.02 in - - ()
Sea Level Pressure  
Sea Level Pressure 30.11 in    
Wind  
Wind Speed 17 mph ()    
Max Wind Speed 25 mph    
Max Gust Speed -    
Visibility 4.3 miles    
Events Rain    
Averages and records for this station are not official NWS values.
T = Trace of Precipitation, MM = Missing Value Source: Averaged Metar Reports

Daily Weather History Graph

Daily Weather History Graph

Search for Another Location

Airport:

Trip Planner

Search our weather history database for the weather conditions in past years. The results will help you decide how hot, cold, wet, or windy it might be!

Date:

Astronomy

Jan. 04, 2011 Rise Set
Actual Time 7:29 AM EET 4:49 PM EET
Civil Twilight 6:58 AM EET 5:20 PM EET
Nautical Twilight 6:24 AM EET 5:54 PM EET
Astronomical Twilight 5:51 AM EET 6:28 PM EET
Moon 7:24 AM EET (1/4) 5:02 PM EET (1/4)
Length of Visible Light 10h 21m
Length of Day
9h 19m
New Moon, 0% of the Moon is Illuminated
Jan 4
New Moon
Jan 12
First Quarter
Jan 19
Full
Jan 26
Last Quarter
Feb 3
New

Hourly Weather History & Observations

Time (EET) Temp. Windchill Dew Point Humidity Pressure Visibility Wind Dir Wind Speed Gust Speed Precip Events Conditions
12:20 AM 42.8 °F 33.5 °F 39.2 °F 87% 29.95 in 3.7 mi NNW 23.0 mph - N/A Rain Light Rain Showers
12:50 AM 41.0 °F 30.7 °F 39.2 °F 93% 29.95 in 3.7 mi NNW 25.3 mph - N/A Rain Light Rain Showers
1:20 AM 41.0 °F 31.4 °F 39.2 °F 93% 29.98 in 3.7 mi NNW 21.9 mph - N/A Rain Light Rain Showers
1:50 AM 41.0 °F 30.9 °F 37.4 °F 87% 29.98 in 3.7 mi NNW 24.2 mph - N/A Rain Light Rain Showers
2:00 AM 41 °F - 38 °F 85% 29.99 in 4 mi NNW 24.2 mph - - Rain Light Rain Showers
2:20 AM 41.0 °F 31.1 °F 37.4 °F 87% 29.98 in 3.7 mi NNW 23.0 mph - N/A Rain Light Rain Showers
2:50 AM 41.0 °F 31.4 °F 37.4 °F 87% 30.01 in 3.7 mi NNW 21.9 mph - N/A Rain Light Rain Showers
3:20 AM 41.0 °F 31.6 °F 37.4 °F 87% 30.01 in 4.3 mi NNW 20.7 mph - N/A Rain Light Rain Showers
3:50 AM 41.0 °F 31.9 °F 37.4 °F 87% 30.01 in 4.3 mi North 19.6 mph - N/A Rain Light Rain Showers
4:20 AM 41.0 °F 31.6 °F 37.4 °F 87% 30.01 in 4.3 mi North 20.7 mph - N/A Rain Light Rain Showers
4:50 AM 41.0 °F 31.4 °F 37.4 °F 87% 30.04 in 4.3 mi North 21.9 mph - N/A Rain Light Rain Showers
5:20 AM 39.2 °F 29.6 °F 37.4 °F 93% 30.04 in 4.3 mi North 19.6 mph - N/A Rain Light Rain Showers
5:50 AM 41.0 °F 32.2 °F 37.4 °F 87% 30.04 in 4.3 mi North 18.4 mph - N/A Rain Light Rain Showers
6:20 AM 41.0 °F 32.5 °F 37.4 °F 87% 30.04 in 4.3 mi North 17.3 mph - N/A Rain Light Rain Showers
6:50 AM 41.0 °F 32.5 °F 37.4 °F 87% 30.04 in 4.3 mi North 17.3 mph - N/A Rain Light Rain Showers
7:20 AM 41.0 °F 32.5 °F 37.4 °F 87% 30.06 in 4.3 mi North 17.3 mph - N/A Rain Light Rain Showers
7:50 AM 42.8 °F 35.8 °F 37.4 °F 81% 30.06 in 4.3 mi North 13.8 mph - N/A Rain Light Rain Showers
8:00 AM 42 °F - 38 °F 81% 30.09 in 4 mi North 13.8 mph - - Rain Light Rain Showers
8:20 AM 41.0 °F 32.8 °F 37.4 °F 87% 30.09 in 3.7 mi North 16.1 mph - N/A Rain Light Rain Showers
8:50 AM 41.0 °F 32.8 °F 37.4 °F 87% 30.09 in 4.3 mi North 16.1 mph - N/A Rain Light Rain Showers
9:20 AM 42.8 °F 35.4 °F 37.4 °F 81% 30.09 in 4.3 mi North 15.0 mph - N/A Rain Light Rain Showers
9:50 AM 41.0 °F 33.5 °F 37.4 °F 87% 30.12 in 3.7 mi North 13.8 mph - N/A Rain Light Rain Showers
10:20 AM 41.0 °F 32.8 °F 35.6 °F 81% 30.12 in 3.7 mi North 16.1 mph - N/A Rain Light Rain Showers
10:50 AM 41.0 °F 32.8 °F 35.6 °F 81% 30.12 in 4.3 mi North 16.1 mph - N/A Rain Light Rain Showers
11:20 AM 41.0 °F 32.8 °F 37.4 °F 87% 30.12 in 3.7 mi North 16.1 mph - N/A Rain Light Rain Showers
11:50 AM 41.0 °F 32.2 °F 35.6 °F 81% 30.12 in 5.0 mi North 18.4 mph - N/A   Mostly Cloudy
12:20 PM 42.8 °F 35.1 °F 35.6 °F 76% 30.12 in 6.2 mi North 16.1 mph - N/A   Mostly Cloudy
12:50 PM 41.0 °F 32.5 °F 35.6 °F 81% 30.12 in 6.2 mi North 17.3 mph - N/A   Mostly Cloudy
1:20 PM 41.0 °F 32.5 °F 35.6 °F 81% 30.12 in 6.2 mi North 17.3 mph - N/A   Mostly Cloudy
1:50 PM 41.0 °F 32.2 °F 35.6 °F 81% 30.12 in 6.2 mi North 18.4 mph - N/A   Mostly Cloudy
2:00 PM 42 °F - 35 °F 68% 30.15 in 6 mi North 18.4 mph - -   Partly Cloudy
2:20 PM 41.0 °F 32.2 °F 35.6 °F 81% 30.15 in 6.2 mi North 18.4 mph - N/A   Mostly Cloudy
2:50 PM 41.0 °F 33.1 °F 35.6 °F 81% 30.15 in 6.2 mi North 15.0 mph - N/A   Mostly Cloudy
3:20 PM 41.0 °F 32.5 °F 35.6 °F 81% 30.15 in 3.7 mi North 17.3 mph - N/A Rain Light Rain Showers
3:50 PM 41.0 °F 32.8 °F 35.6 °F 81% 30.15 in 3.7 mi North 16.1 mph - N/A Rain Light Rain Showers
4:20 PM 41.0 °F 33.1 °F 35.6 °F 81% 30.15 in 3.7 mi North 15.0 mph - N/A Rain Light Rain Showers
4:50 PM 41.0 °F 33.1 °F 35.6 °F 81% 30.18 in 3.7 mi North 15.0 mph - N/A Rain Light Rain Showers
5:20 PM 41.0 °F 32.8 °F 35.6 °F 81% 30.18 in 3.7 mi NNE 16.1 mph - N/A Rain Light Rain Showers
5:50 PM 41.0 °F 32.5 °F 35.6 °F 81% 30.18 in 3.7 mi North 17.3 mph - N/A Rain Light Rain Showers
6:20 PM 41.0 °F 32.5 °F 35.6 °F 81% 30.18 in 4.3 mi North 17.3 mph - N/A Rain Light Rain Showers
6:50 PM 41.0 °F 33.1 °F 35.6 °F 81% 30.18 in 3.7 mi North 15.0 mph - N/A Rain Light Rain Showers
7:20 PM 41.0 °F 33.1 °F 35.6 °F 81% 30.18 in 3.7 mi NNE 15.0 mph - N/A Rain Light Rain Showers
7:50 PM 42.8 °F 36.2 °F 35.6 °F 76% 30.21 in 3.7 mi NNE 12.7 mph - N/A Rain Light Rain Showers
8:00 PM 43 °F - 36 °F 67% 30.22 in 4 mi NNE 12.7 mph - - Rain Light Rain Showers
8:20 PM 41.0 °F 33.1 °F 33.8 °F 76% 30.21 in 4.3 mi North 15.0 mph - N/A Rain Light Rain Showers
8:50 PM 41.0 °F 32.8 °F 33.8 °F 76% 30.21 in 4.3 mi North 16.1 mph - N/A Rain Light Rain Showers
9:20 PM 41.0 °F 33.9 °F 35.6 °F 81% 30.21 in 4.3 mi North 12.7 mph - N/A Rain Light Rain Showers
9:50 PM 41.0 °F 33.5 °F 33.8 °F 76% 30.21 in 3.7 mi NNE 13.8 mph - N/A Rain Light Rain Showers
10:20 PM 41.0 °F 33.1 °F 33.8 °F 76% 30.21 in 4.3 mi NNE 15.0 mph - N/A Rain Light Rain Showers
10:50 PM 41.0 °F 33.5 °F 33.8 °F 76% 30.21 in 4.3 mi NNE 13.8 mph - N/A Rain Light Rain Showers
11:20 PM 41.0 °F 33.5 °F 35.6 °F 81% 30.21 in 4.3 mi NNE 13.8 mph - N/A Rain Light Rain Showers
11:50 PM 41.0 °F 33.5 °F 35.6 °F 81% 30.21 in 3.7 mi NNE 13.8 mph - N/A Rain Light Rain Showers